Regional Weather Roundup
Issued by NWS

Home | Current Version | Previous Version | Text Only | Print | Product List | Glossary Off
Versions: 1 2 3 4 5 6 7 8 9 10 11 12 13 14 15 16 17 18 19 20 21 22 23 24 25 26 27 28 29 30 31 32 33 34 35 36 37 38 39 40 41 42 43 44 45 46 47 48 49 50

000
ASUS43 KTOP 301459
RWRKS

WEATHER ROUNDUP FOR KANSAS
NATIONAL WEATHER SERVICE GOODLAND KS
1000 AM CDT TUE JUN 30 2015

NOTE:  "FAIR" INDICATES FEW OR NO CLOUDS BELOW 12,000 FEET WITH NO
SIGNIFICANT WEATHER AND/OR OBSTRUCTIONS TO VISIBILITY.

KSZ001>006-013>018-027>032-041>047-301600-
NORTHWEST KANSAS

CITY           SKY/WX    TMP DP  RH WIND       PRES   REMARKS
GOODLAND       SUNNY     85  55  35 SW6       30.08S
HAYS           FAIR      88  57  35 W10       30.01S
HILL CITY      MOSUNNY   83  57  41 VRB3      30.01F
RUSSELL        SUNNY     84  58  40 SW8       29.99S
$$

KSZ061>065-074>080-084>089-301600-
SOUTHWEST KANSAS

CITY           SKY/WX    TMP DP  RH WIND       PRES   REMARKS
DODGE CITY     SUNNY     85  59  41 W10       30.06S
ELKHART          N/A     84  59  42 W7          N/A
GARDEN CITY    SUNNY     83  60  45 SW9       30.07S
GREAT BEND     SUNNY     82  63  51 W6        30.02S
LIBERAL        SUNNY     84  63  48 SW9         N/A
$$

KSZ066>073-081>083-090>101-301600-
SOUTHEAST KANSAS

CITY           SKY/WX    TMP DP  RH WIND       PRES   REMARKS
CHANUTE        SUNNY     79  66  64 NW3       29.99S
COFFEYVILLE    SUNNY     79  68  69 SW5       29.98S
HUTCHINSON     MOSUNNY   85  63  47 S5        30.00S
NEWTON         SUNNY     82  61  47 W7        30.03S
PARSONS        SUNNY     78  69  73 CALM      29.99F
WICHITA INTL   MOSUNNY   84  64  50 VRB3      30.00S
WICHITA JABRA  SUNNY     84  63  49 W7        30.00S
WINFIELD       SUNNY     84  65  52 W3        30.01F
$$

KSZ007>012-019>026-033>040-048>060-102>105-301600-
NORTHEAST KANSAS

CITY           SKY/WX    TMP DP  RH WIND       PRES   REMARKS
CONCORDIA      PTSUNNY   84  64  50 SW8       29.97S
EMPORIA        SUNNY     82  65  56 W6        29.98S
LAWRENCE       SUNNY     77  64  64 W8        29.96S
MANHATTAN      SUNNY     81  66  60 SW6       29.96S
OLATHE IND     SUNNY     78  64  61 NW9       29.97S
OLATHE EXE     SUNNY     79  63  57 NW5       29.96S
SALINA         MOSUNNY   88  63  43 S5        29.98S
TOPEKA BILLARD SUNNY     77  64  64 W5        29.96S
TOPEKA FORBES  SUNNY     81  62  52 NW7       29.97R
$$


USA.gov is the U.S. government's official web portal to all federal, state and local government web resources and services.